Edinburg, TX

4:39 PM CST on February 08, 2016 (GMT -0600)
Edinburg

Weather History for KEBG - December, 2012

Change the Weather History Date:

Thursday, December 20, 2012

  Actual Average (KMFE) Record (KMFE)
Temperature  
Mean Temperature 60 °F 61 °F  
Max Temperature 73 °F 71 °F 89 °F (2007)
Min Temperature 47 °F 51 °F 27 °F (1996)
Degree Days  
Heating Degree Days 5 6  
Month to date heating degree days 103  
Since 1 July heating degree days 163  
Cooling Degree Days 0 2  
Month to date cooling degree days 60  
Year to date cooling degree days 4429  
Growing Degree Days 10 (Base 50)    
Moisture  
Dew Point 22 °F    
Average Humidity 27    
Maximum Humidity 89    
Minimum Humidity 10    
Precipitation  
Precipitation 0.00 in 0.04 in 0.36 in (1983)
Month to date precipitation 0.74  
Year to date precipitation 21.75  
Sea Level Pressure  
Sea Level Pressure 30.26 in    
Wind  
Wind Speed 15 mph (NNW)    
Max Wind Speed 31 mph    
Max Gust Speed 41 mph    
Visibility 5 miles    
Events      
T = Trace of Precipitation, MM = Missing Value Source: NWS Daily Summary

Daily Weather History Graph

Daily Weather History Graph

Search for Another Location

Airport or City:

Trip Planner

Search our weather history database for the weather conditions in past years. The results will help you decide how hot, cold, wet, or windy it might be!

Date:

Astronomy

Dec. 20, 2012 Rise Set
Actual Time 7:15 AM CST 5:44 PM CST
Civil Twilight 6:50 AM CST 6:10 PM CST
Nautical Twilight 6:21 AM CST 6:39 PM CST
Astronomical Twilight 5:53 AM CST 7:07 PM CST
Moon 12:37 PM CST (12/20) 12:33 AM CST (12/20)
Length of Visible Light 11h 19m
Length of Day
10h 28m
First Quarter, 55% of the Moon is Illuminated
Dec 20
First Quarter
Dec 28
Full
Jan 4
Last Quarter
Jan 11
New
Jan 18
First Quarter

Hourly Weather History & Observations

Time (CST) Temp. Dew Point Humidity Pressure Visibility Wind Dir Wind Speed Gust Speed Precip Events Conditions
12:15 AM 73.9 °F 69.8 °F 87% 29.79 in 4.0 mi South 9.2 mph - N/A   Clear
12:35 AM 73.8 °F 69.8 °F 87% 29.80 in 4.0 mi South 8.1 mph - N/A   Clear
12:55 AM 73.4 °F 69.6 °F 88% 29.80 in 4.0 mi South 6.9 mph - N/A   Clear
1:15 AM 73.4 °F 69.4 °F 87% 29.81 in 4.0 mi South 8.1 mph - N/A   Clear
1:35 AM 73.4 °F 69.3 °F 87% 29.81 in 3.0 mi South 5.8 mph - N/A   Clear
1:55 AM 72.7 °F 69.1 °F 88% 29.82 in 3.0 mi South 5.8 mph - N/A   Clear
2:15 AM 72.5 °F 68.9 °F 88% 29.82 in 3.0 mi South 4.6 mph - N/A   Clear
2:35 AM 72.0 °F 68.7 °F 89% 29.83 in 3.0 mi SSW 5.8 mph - N/A   Clear
2:55 AM 71.8 °F 68.5 °F 89% 29.85 in 3.0 mi WSW 5.8 mph - N/A   Clear
3:15 AM 73.9 °F 67.8 °F 81% 29.91 in 5.0 mi WNW 16.1 mph 20.7 mph N/A   Haze
3:35 AM 73.8 °F 61.5 °F 65% 29.93 in 5.0 mi NNW 20.7 mph 29.9 mph N/A   Haze
3:55 AM 72.9 °F 54.9 °F 53% 29.95 in 7.0 mi North 20.7 mph 29.9 mph N/A   Clear
4:15 AM 72.5 °F 49.3 °F 44% 29.97 in 5.0 mi North 23.0 mph 29.9 mph N/A   Haze
4:35 AM 71.8 °F 42.4 °F 35% 29.99 in 5.0 mi North 19.6 mph 27.6 mph N/A   Haze
4:55 AM 71.2 °F 32.9 °F 24% 30.01 in 4.0 mi North 31.1 mph 41.4 mph N/A   Haze
5:15 AM 70.2 °F 30.6 °F 23% 30.03 in 5.0 mi NNW 24.2 mph 31.1 mph N/A   Haze
5:35 AM 69.1 °F 24.6 °F 19% 30.06 in 4.0 mi North 21.9 mph 28.8 mph N/A   Haze
5:55 AM 68.5 °F 18.1 °F 15% 30.08 in 4.0 mi North 27.6 mph 36.8 mph N/A   Haze
6:15 AM 68.0 °F 15.4 °F 13% 30.10 in 5.0 mi North 26.5 mph 39.1 mph N/A   Haze
6:35 AM 66.7 °F 14.0 °F 13% 30.14 in 5.0 mi North 23.0 mph 31.1 mph N/A   Haze
6:55 AM 66.2 °F 13.3 °F 13% 30.17 in 5.0 mi North 18.4 mph 27.6 mph N/A   Haze
7:15 AM 65.3 °F 12.2 °F 13% 30.19 in 5.0 mi North 25.3 mph 34.5 mph N/A   Haze
7:35 AM 64.6 °F 12.2 °F 13% 30.22 in 4.0 mi North 19.6 mph 33.4 mph N/A   Haze
7:55 AM 64.0 °F 12.7 °F 14% 30.24 in 4.0 mi North 23.0 mph 31.1 mph N/A   Haze
8:15 AM 63.9 °F 13.5 °F 14% 30.26 in 3.0 mi North 18.4 mph 27.6 mph N/A   Haze
8:35 AM 63.7 °F 14.0 °F 15% 30.30 in 4.0 mi NNW 16.1 mph 20.7 mph N/A   Haze
8:55 AM 64.0 °F 14.0 °F 14% 30.31 in 4.0 mi North 23.0 mph 32.2 mph N/A   Haze
9:15 AM 63.7 °F 13.3 °F 14% 30.33 in 4.0 mi North 27.6 mph 35.7 mph N/A   Haze
9:35 AM 64.8 °F 14.2 °F 14% 30.36 in 5.0 mi North 21.9 mph 27.6 mph N/A   Haze
9:55 AM 63.9 °F 13.3 °F 14% 30.37 in 5.0 mi North 21.9 mph 29.9 mph N/A   Haze
10:15 AM 65.7 °F 13.5 °F 13% 30.38 in 5.0 mi North 24.2 mph 32.2 mph N/A   Haze
10:35 AM 65.3 °F 13.5 °F 13% 30.38 in 3.0 mi North 21.9 mph 32.2 mph N/A   Haze
10:55 AM 63.9 °F 11.3 °F 13% 30.40 in 2.5 mi North 27.6 mph 39.1 mph N/A   Haze
11:15 AM 63.5 °F 12.2 °F 14% 30.41 in 4.0 mi North 24.2 mph 32.2 mph N/A   Haze
11:35 AM 63.7 °F 11.5 °F 13% 30.42 in 4.0 mi NNW 24.2 mph 34.5 mph N/A   Haze
11:55 AM 64.0 °F 12.4 °F 13% 30.41 in 5.0 mi North 24.2 mph 33.4 mph N/A   Haze
12:15 PM 64.4 °F 12.6 °F 13% 30.41 in 5.0 mi NNW 21.9 mph 29.9 mph N/A   Haze
12:35 PM 64.8 °F 12.0 °F 13% 30.40 in 7.0 mi NW 20.7 mph 29.9 mph N/A   Clear
12:55 PM 64.9 °F 10.0 °F 12% 30.39 in 7.0 mi NNW 19.6 mph 32.2 mph N/A   Clear
1:15 PM 64.9 °F 7.5 °F 10% 30.38 in 5.0 mi North 20.7 mph 31.1 mph N/A   Haze
1:35 PM 65.3 °F 7.2 °F 10% 30.37 in 5.0 mi NNW 23.0 mph 32.2 mph N/A   Haze
1:55 PM 65.1 °F 8.6 °F 11% 30.36 in 5.0 mi NNW 25.3 mph 31.1 mph N/A   Haze
2:15 PM 65.3 °F 7.2 °F 10% 30.36 in 4.0 mi North 25.3 mph 33.4 mph N/A   Haze
2:35 PM 65.5 °F 7.9 °F 10% 30.36 in 7.0 mi NNW 25.3 mph 34.5 mph N/A   Clear
2:55 PM 65.3 °F 7.9 °F 11% 30.36 in 7.0 mi North 18.4 mph 28.8 mph N/A   Clear
3:15 PM 66.0 °F 7.5 °F 10% 30.36 in 5.0 mi NNW 23.0 mph 31.1 mph N/A   Haze
3:35 PM 65.3 °F 7.0 °F 10% 30.36 in 7.0 mi North 23.0 mph - N/A   Clear
3:55 PM 64.9 °F 7.3 °F 10% 30.36 in 7.0 mi NNW 20.7 mph 25.3 mph N/A   Clear
4:15 PM 64.4 °F 6.4 °F 10% 30.37 in 5.0 mi NNW 18.4 mph 28.8 mph N/A   Haze
4:35 PM 63.7 °F 6.6 °F 11% 30.38 in 7.0 mi North 18.4 mph 27.6 mph N/A   Clear
4:55 PM 63.1 °F 6.8 °F 11% 30.38 in 7.0 mi NNW 15.0 mph 25.3 mph N/A   Clear
5:15 PM 62.6 °F 5.0 °F 10% 30.38 in 5.0 mi NNW 16.1 mph 20.7 mph N/A   Haze
5:35 PM 61.3 °F 5.4 °F 11% 30.39 in 7.0 mi NNW 16.1 mph - N/A   Clear
5:55 PM 59.9 °F 5.2 °F 11% 30.40 in 5.0 mi NNW 12.7 mph - N/A   Haze
6:15 PM 59.0 °F 5.4 °F 12% 30.41 in 10.0 mi NNW 10.4 mph - N/A   Clear
6:35 PM 58.1 °F 5.7 °F 12% 30.41 in 10.0 mi NNW 10.4 mph - N/A   Clear
6:55 PM 56.5 °F 6.8 °F 14% 30.42 in 7.0 mi NW 6.9 mph - N/A   Clear
7:15 PM 54.9 °F 7.2 °F 15% 30.43 in 7.0 mi NW 5.8 mph - N/A   Clear
7:35 PM 53.8 °F 8.1 °F 16% 30.43 in 7.0 mi NW 6.9 mph - N/A   Clear
7:55 PM 52.9 °F 8.6 °F 17% 30.45 in 7.0 mi NW 5.8 mph - N/A   Clear
8:15 PM 52.0 °F 9.7 °F 18% 30.45 in 7.0 mi NW 6.9 mph - N/A   Clear
8:35 PM 51.3 °F 11.1 °F 20% 30.46 in 7.0 mi NW 4.6 mph - N/A   Clear
8:55 PM 50.4 °F 12.6 °F 22% 30.47 in 7.0 mi NW 6.9 mph - N/A   Clear
9:15 PM 49.6 °F 12.6 °F 23% 30.47 in 7.0 mi NW 6.9 mph - N/A   Clear
9:35 PM 49.3 °F 13.5 °F 24% 30.47 in 7.0 mi NW 6.9 mph - N/A   Clear
9:55 PM 48.2 °F 13.6 °F 25% 30.48 in 7.0 mi NW 5.8 mph - N/A   Clear
10:15 PM 49.1 °F 14.9 °F 26% 30.48 in 7.0 mi NW 5.8 mph - N/A   Clear
10:35 PM 50.7 °F 14.7 °F 24% 30.49 in 7.0 mi NW 4.6 mph - N/A   Clear
10:55 PM 49.3 °F 14.9 °F 25% 30.50 in 7.0 mi North 8.1 mph - N/A   Clear
11:15 PM 48.2 °F 15.4 °F 27% 30.50 in 7.0 mi NW 5.8 mph - N/A   Clear
11:35 PM 47.8 °F 15.8 °F 28% 30.50 in 7.0 mi NW 5.8 mph - N/A   Clear
11:55 PM 47.3 °F 16.3 °F 29% 30.50 in 7.0 mi NW 5.8 mph - N/A   Clear